Time,TemperatureF,DewpointF,PressureIn,WindDirection,WindDirectionDegrees,WindSpeedMPH,WindSpeedGustMPH,Humidity,HourlyPrecipIn,Conditions,Clouds,dailyrainin,SoftwareType,DateUTC
2013-07-04 00:01:00,82.7,70.2,29.67,North,356,0.0,0.0,66,0.00,CLR,,0.00,WeatherDisplay:10.37,2013-07-04 07:01:00,
2013-07-04 00:06:00,82.5,69.5,29.67,North,356,0.0,0.0,65,0.00,CLR,,0.00,WeatherDisplay:10.37,2013-07-04 07:06:00,
2013-07-04 00:11:00,82.3,69.4,29.67,North,356,0.0,0.0,65,0.00,CLR,,0.00,WeatherDisplay:10.37,2013-07-04 07:11:00,
2013-07-04 00:16:00,82.2,68.8,29.67,North,356,0.0,0.0,64,0.00,CLR,,0.00,WeatherDisplay:10.37,2013-07-04 07:16:00,
2013-07-04 00:21:00,82.1,69.2,29.67,North,356,0.0,0.0,65,0.00,CLR,,0.00,WeatherDisplay:10.37,2013-07-04 07:21:00,
2013-07-04 00:26:00,82.0,69.5,29.67,North,356,0.0,0.0,66,0.00,CLR,,0.00,WeatherDisplay:10.37,2013-07-04 07:26:00,
2013-07-04 00:31:00,81.8,69.8,29.67,North,356,0.0,0.0,67,0.00,CLR,,0.00,WeatherDisplay:10.37,2013-07-04 07:31:00,
2013-07-04 00:36:00,81.7,69.7,29.67,North,356,0.0,0.0,67,0.00,CLR,,0.00,WeatherDisplay:10.37,2013-07-04 07:36:00,
2013-07-04 00:41:00,81.5,69.5,29.66,North,356,0.0,0.0,67,0.00,CLR,,0.00,WeatherDisplay:10.37,2013-07-04 07:41:00,
2013-07-04 00:46:00,81.4,69.8,29.66,North,356,0.0,0.0,68,0.00,CLR,,0.00,WeatherDisplay:10.37,2013-07-04 07:46:00,
2013-07-04 00:51:00,81.2,69.6,29.66,North,356,0.0,0.0,68,0.00,CLR,,0.00,WeatherDisplay:10.37,2013-07-04 07:51:00,
2013-07-04 00:56:00,81.0,69.4,29.67,North,356,0.0,0.0,68,0.00,CLR,,0.00,WeatherDisplay:10.37,2013-07-04 07:56:00,
2013-07-04 01:01:00,80.9,69.3,29.67,North,356,0.0,0.0,68,0.00,CLR,,0.00,WeatherDisplay:10.37,2013-07-04 08:01:00,
2013-07-04 01:06:00,80.8,68.8,29.67,North,356,0.0,0.0,67,0.00,CLR,,0.00,WeatherDisplay:10.37,2013-07-04 08:06:00,
2013-07-04 01:11:00,80.7,68.7,29.67,North,356,0.0,0.0,67,0.00,CLR,,0.00,WeatherDisplay:10.37,2013-07-04 08:11:00,
2013-07-04 01:16:00,80.6,69.1,29.67,North,356,0.0,0.0,68,0.00,CLR,,0.00,WeatherDisplay:10.37,2013-07-04 08:16:00,
2013-07-04 01:21:00,80.6,69.1,29.67,North,356,0.0,0.0,68,0.00,CLR,,0.00,WeatherDisplay:10.37,2013-07-04 08:21:00,
2013-07-04 01:26:00,80.5,68.5,29.67,North,356,0.0,0.0,67,0.00,CLR,,0.00,WeatherDisplay:10.37,2013-07-04 08:26:00,
2013-07-04 01:31:00,80.5,68.5,29.67,North,356,0.0,0.0,67,0.00,CLR,,0.00,WeatherDisplay:10.37,2013-07-04 08:31:00,
2013-07-04 01:36:00,80.4,68.0,29.67,North,356,0.0,0.0,66,0.00,CLR,,0.00,WeatherDisplay:10.37,2013-07-04 08:36:00,
2013-07-04 01:41:00,80.4,68.4,29.67,North,356,0.0,0.0,67,0.00,CLR,,0.00,WeatherDisplay:10.37,2013-07-04 08:41:00,
2013-07-04 01:46:00,80.5,69.0,29.66,North,356,0.0,0.0,68,0.00,CLR,,0.00,WeatherDisplay:10.37,2013-07-04 08:46:00,
2013-07-04 01:51:00,80.3,67.9,29.66,North,356,0.0,0.0,66,0.00,CLR,,0.00,WeatherDisplay:10.37,2013-07-04 08:51:00,
2013-07-04 01:56:00,80.2,66.9,29.66,North,356,0.0,0.0,64,0.00,CLR,,0.00,WeatherDisplay:10.37,2013-07-04 08:56:00,
2013-07-04 02:01:00,80.1,68.2,29.66,North,356,0.0,0.0,67,0.00,CLR,,0.00,WeatherDisplay:10.37,2013-07-04 09:01:00,
2013-07-04 02:06:00,80.1,68.6,29.66,North,356,0.0,0.0,68,0.00,CLR,,0.00,WeatherDisplay:10.37,2013-07-04 09:06:00,
2013-07-04 02:11:00,79.9,68.4,29.66,North,356,0.0,0.0,68,0.00,CLR,,0.00,WeatherDisplay:10.37,2013-07-04 09:11:00,
2013-07-04 02:16:00,79.8,68.3,29.66,North,356,0.0,0.0,68,0.00,CLR,,0.00,WeatherDisplay:10.37,2013-07-04 09:16:00,
2013-07-04 02:21:00,79.8,68.3,29.65,North,356,0.0,0.0,68,0.00,CLR,,0.00,WeatherDisplay:10.37,2013-07-04 09:21:00,
2013-07-04 02:26:00,79.9,68.0,29.65,North,356,0.0,0.0,67,0.00,CLR,,0.00,WeatherDisplay:10.37,2013-07-04 09:26:00,
2013-07-04 02:31:00,79.9,67.5,29.65,North,356,0.0,0.0,66,0.00,CLR,,0.00,WeatherDisplay:10.37,2013-07-04 09:31:00,
2013-07-04 02:36:00,79.8,67.4,29.65,North,356,0.0,0.0,66,0.00,CLR,,0.00,WeatherDisplay:10.37,2013-07-04 09:36:00,
2013-07-04 02:41:00,79.7,67.3,29.65,North,356,0.0,0.0,66,0.00,CLR,,0.00,WeatherDisplay:10.37,2013-07-04 09:41:00,
2013-07-04 02:46:00,79.5,66.3,29.65,North,356,0.0,0.0,64,0.00,CLR,,0.00,WeatherDisplay:10.37,2013-07-04 09:46:00,
2013-07-04 02:51:00,79.4,66.6,29.65,North,356,0.0,0.0,65,0.00,CLR,,0.00,WeatherDisplay:10.37,2013-07-04 09:51:00,
2013-07-04 02:56:00,79.3,66.5,29.65,North,356,0.0,0.0,65,0.00,CLR,,0.00,WeatherDisplay:10.37,2013-07-04 09:56:00,
2013-07-04 03:01:00,79.3,67.4,29.65,North,356,0.0,0.0,67,0.00,CLR,,0.00,WeatherDisplay:10.37,2013-07-04 10:01:00,
2013-07-04 03:06:00,79.2,67.3,29.64,North,356,0.0,0.0,67,0.00,CLR,,0.00,WeatherDisplay:10.37,2013-07-04 10:06:00,
2013-07-04 03:11:00,79.1,67.2,29.64,North,356,0.0,0.0,67,0.00,CLR,,0.00,WeatherDisplay:10.37,2013-07-04 10:11:00,
2013-07-04 03:16:00,79.2,68.1,29.64,North,356,0.0,0.0,69,0.00,CLR,,0.00,WeatherDisplay:10.37,2013-07-04 10:16:00,
2013-07-04 03:21:00,79.2,68.1,29.64,North,356,0.0,0.0,69,0.00,CLR,,0.00,WeatherDisplay:10.37,2013-07-04 10:21:00,
2013-07-04 03:26:00,79.2,68.6,29.64,North,356,0.0,0.0,70,0.00,CLR,,0.00,WeatherDisplay:10.37,2013-07-04 10:26:00,
2013-07-04 03:31:00,79.0,68.0,29.64,North,356,0.0,0.0,69,0.00,CLR,,0.00,WeatherDisplay:10.37,2013-07-04 10:31:00,
2013-07-04 03:36:00,78.8,67.3,29.64,North,356,0.0,0.0,68,0.00,CLR,,0.00,WeatherDisplay:10.37,2013-07-04 10:36:00,
2013-07-04 03:41:00,78.6,68.0,29.64,North,356,0.0,0.0,70,0.00,CLR,,0.00,WeatherDisplay:10.37,2013-07-04 10:41:00,
2013-07-04 03:46:00,78.5,67.5,29.64,North,356,0.0,0.0,69,0.00,CLR,,0.00,WeatherDisplay:10.37,2013-07-04 10:46:00,
2013-07-04 03:51:00,78.3,67.3,29.64,North,356,0.0,0.0,69,0.00,CLR,,0.00,WeatherDisplay:10.37,2013-07-04 10:51:00,
2013-07-04 03:56:00,78.1,66.7,29.64,North,356,0.0,0.0,68,0.00,CLR,,0.00,WeatherDisplay:10.37,2013-07-04 10:56:00,
2013-07-04 04:01:00,77.9,66.5,29.64,North,356,0.0,0.0,68,0.00,CLR,,0.00,WeatherDisplay:10.37,2013-07-04 11:01:00,
2013-07-04 04:06:00,77.8,66.8,29.64,North,356,0.0,0.0,69,0.00,CLR,,0.00,WeatherDisplay:10.37,2013-07-04 11:06:00,
2013-07-04 04:11:00,77.6,66.6,29.63,North,356,0.0,0.0,69,0.00,CLR,,0.00,WeatherDisplay:10.37,2013-07-04 11:11:00,
2013-07-04 04:16:00,77.5,67.4,29.64,North,356,0.0,0.0,71,0.00,CLR,,0.00,WeatherDisplay:10.37,2013-07-04 11:16:00,
2013-07-04 04:21:00,77.4,67.3,29.64,North,355,0.0,0.0,71,0.00,CLR,,0.00,WeatherDisplay:10.37,2013-07-04 11:21:00,
2013-07-04 04:26:00,77.4,67.7,29.64,North,356,0.0,0.0,72,0.00,CLR,,0.00,WeatherDisplay:10.37,2013-07-04 11:26:00,
2013-07-04 04:31:00,77.2,67.9,29.64,North,356,0.0,0.0,73,0.00,CLR,,0.00,WeatherDisplay:10.37,2013-07-04 11:31:00,
2013-07-04 04:36:00,77.1,67.8,29.64,North,356,0.0,0.0,73,0.00,CLR,,0.00,WeatherDisplay:10.37,2013-07-04 11:36:00,
2013-07-04 04:41:00,76.9,67.2,29.64,North,356,0.0,0.0,72,0.00,CLR,,0.00,WeatherDisplay:10.37,2013-07-04 11:41:00,
2013-07-04 04:46:00,76.8,67.9,29.63,North,356,0.0,0.0,74,0.00,CLR,,0.00,WeatherDisplay:10.37,2013-07-04 11:46:00,
2013-07-04 04:51:00,76.7,67.8,29.64,North,356,0.0,0.0,74,0.00,CLR,,0.00,WeatherDisplay:10.37,2013-07-04 11:51:00,
2013-07-04 04:56:00,76.7,67.4,29.64,North,356,0.0,0.0,73,0.00,CLR,,0.00,WeatherDisplay:10.37,2013-07-04 11:56:00,
2013-07-04 05:01:00,76.6,67.7,29.64,North,356,0.0,0.0,74,0.00,CLR,,0.00,WeatherDisplay:10.37,2013-07-04 12:01:00,
2013-07-04 05:06:00,76.6,68.1,29.64,North,356,0.0,0.0,75,0.00,CLR,,0.00,WeatherDisplay:10.37,2013-07-04 12:06:00,
2013-07-04 05:11:00,76.4,67.9,29.64,North,356,0.0,0.0,75,0.00,CLR,,0.00,WeatherDisplay:10.37,2013-07-04 12:11:00,
2013-07-04 05:16:00,76.3,67.8,29.64,North,356,0.0,0.0,75,0.00,CLR,,0.00,WeatherDisplay:10.37,2013-07-04 12:16:00,
2013-07-04 05:21:00,76.1,67.2,29.64,North,356,0.0,0.0,74,0.00,CLR,,0.00,WeatherDisplay:10.37,2013-07-04 12:21:00,
2013-07-04 05:26:00,76.0,66.7,29.64,North,356,0.0,0.0,73,0.00,CLR,,0.00,WeatherDisplay:10.37,2013-07-04 12:26:00,
2013-07-04 05:31:00,75.9,67.0,29.64,North,356,0.0,0.0,74,0.00,CLR,,0.00,WeatherDisplay:10.37,2013-07-04 12:31:00,
2013-07-04 05:36:00,75.8,66.9,29.64,North,356,0.0,0.0,74,0.00,CLR,,0.00,WeatherDisplay:10.37,2013-07-04 12:36:00,
2013-07-04 05:41:00,75.8,67.3,29.65,North,356,0.0,0.0,75,0.00,CLR,,0.00,WeatherDisplay:10.37,2013-07-04 12:41:00,
2013-07-04 05:46:00,75.8,67.7,29.65,North,356,0.0,0.0,76,0.00,CLR,,0.00,WeatherDisplay:10.37,2013-07-04 12:46:00,
2013-07-04 05:51:00,75.8,67.7,29.65,North,356,0.0,0.0,76,0.00,CLR,,0.00,WeatherDisplay:10.37,2013-07-04 12:51:00,
2013-07-04 05:56:00,75.8,67.3,29.65,North,356,0.0,0.0,75,0.00,CLR,,0.00,WeatherDisplay:10.37,2013-07-04 12:56:00,
2013-07-04 06:01:00,75.9,67.4,29.65,North,355,0.0,0.0,75,0.00,CLR,,0.00,WeatherDisplay:10.37,2013-07-04 13:01:00,
2013-07-04 06:06:00,76.0,67.5,29.65,North,356,0.0,0.0,75,0.00,CLR,,0.00,WeatherDisplay:10.37,2013-07-04 13:06:00,
2013-07-04 06:11:00,76.1,67.6,29.65,North,356,0.0,0.0,75,0.00,CLR,,0.00,WeatherDisplay:10.37,2013-07-04 13:11:00,
2013-07-04 06:16:00,76.0,67.1,29.65,North,356,0.0,0.0,74,0.00,CLR,,0.00,WeatherDisplay:10.37,2013-07-04 13:16:00,
2013-07-04 06:21:00,76.0,67.1,29.65,North,356,0.0,0.0,74,0.00,CLR,,0.00,WeatherDisplay:10.37,2013-07-04 13:21:00,
2013-07-04 06:26:00,76.0,67.5,29.66,North,356,0.0,0.0,75,0.00,CLR,,0.00,WeatherDisplay:10.37,2013-07-04 13:26:00,
2013-07-04 06:31:00,76.1,67.6,29.66,North,356,0.0,0.0,75,0.00,CLR,,0.00,WeatherDisplay:10.37,2013-07-04 13:31:00,
2013-07-04 06:36:00,76.2,67.3,29.66,North,356,0.0,0.0,74,0.00,CLR,,0.00,WeatherDisplay:10.37,2013-07-04 13:36:00,
2013-07-04 06:41:00,76.3,67.0,29.66,North,356,0.0,0.0,73,0.00,CLR,,0.00,WeatherDisplay:10.37,2013-07-04 13:41:00,
2013-07-04 06:46:00,76.6,67.7,29.66,North,8,0.0,0.0,74,0.00,CLR,,0.00,WeatherDisplay:10.37,2013-07-04 13:46:00,
2013-07-04 06:51:00,77.0,67.7,29.66,North,8,0.0,0.0,73,0.00,CLR,,0.00,WeatherDisplay:10.37,2013-07-04 13:51:00,
2013-07-04 06:56:00,77.4,67.7,29.66,North,8,0.0,0.0,72,0.00,CLR,,0.00,WeatherDisplay:10.37,2013-07-04 13:56:00,
2013-07-04 07:01:00,78.0,67.8,29.66,North,7,0.0,0.0,71,0.00,CLR,,0.00,WeatherDisplay:10.37,2013-07-04 14:01:00,
2013-07-04 07:06:00,78.6,67.6,29.66,North,7,0.0,0.0,69,0.00,CLR,,0.00,WeatherDisplay:10.37,2013-07-04 14:06:00,
2013-07-04 07:11:00,79.3,67.8,29.67,North,7,0.0,0.0,68,0.00,CLR,,0.00,WeatherDisplay:10.37,2013-07-04 14:11:00,
2013-07-04 07:16:00,79.6,67.2,29.67,North,8,0.0,0.0,66,0.00,CLR,,0.00,WeatherDisplay:10.37,2013-07-04 14:16:00,
2013-07-04 07:21:00,79.9,66.6,29.67,North,7,0.0,0.0,64,0.00,CLR,,0.00,WeatherDisplay:10.37,2013-07-04 14:21:00,
2013-07-04 07:26:00,80.1,66.4,29.66,North,8,0.0,0.0,63,0.00,CLR,,0.00,WeatherDisplay:10.37,2013-07-04 14:26:00,
2013-07-04 07:31:00,80.3,66.1,29.67,North,7,0.0,0.0,62,0.00,CLR,,0.00,WeatherDisplay:10.37,2013-07-04 14:31:00,
2013-07-04 07:36:00,80.7,68.7,29.67,North,8,0.0,0.0,67,0.00,CLR,,0.00,WeatherDisplay:10.37,2013-07-04 14:36:00,
2013-07-04 07:41:00,81.0,67.2,29.67,North,8,0.0,0.0,63,0.00,CLR,,0.00,WeatherDisplay:10.37,2013-07-04 14:41:00,
2013-07-04 07:46:00,81.2,66.5,29.67,North,7,0.0,0.0,61,0.00,CLR,,0.00,WeatherDisplay:10.37,2013-07-04 14:46:00,
2013-07-04 07:51:00,81.5,65.3,29.67,North,8,0.0,0.0,58,0.00,CLR,,0.00,WeatherDisplay:10.37,2013-07-04 14:51:00,
2013-07-04 07:56:00,81.8,65.6,29.67,North,8,0.0,0.0,58,0.00,CLR,,0.00,WeatherDisplay:10.37,2013-07-04 14:56:00,
2013-07-04 08:01:00,82.1,63.8,29.67,North,5,0.0,0.0,54,0.00,CLR,,0.00,WeatherDisplay:10.37,2013-07-04 15:01:00,
2013-07-04 08:06:00,82.5,62.0,29.67,North,5,0.0,0.1,50,0.00,CLR,,0.00,WeatherDisplay:10.37,2013-07-04 15:06:00,
2013-07-04 08:11:00,83.0,61.9,29.67,North,5,0.0,0.0,49,0.00,CLR,,0.00,WeatherDisplay:10.37,2013-07-04 15:11:00,
2013-07-04 08:16:00,83.4,62.2,29.67,North,5,0.0,0.0,49,0.00,CLR,,0.00,WeatherDisplay:10.37,2013-07-04 15:16:00,
2013-07-04 08:21:00,83.8,62.0,29.67,North,5,0.0,0.0,48,0.00,CLR,,0.00,WeatherDisplay:10.37,2013-07-04 15:21:00,
2013-07-04 08:26:00,84.3,62.5,29.67,North,5,0.0,0.0,48,0.00,CLR,,0.00,WeatherDisplay:10.37,2013-07-04 15:26:00,
2013-07-04 08:31:00,84.8,62.9,29.67,North,5,0.0,0.0,48,0.00,CLR,,0.00,WeatherDisplay:10.37,2013-07-04 15:31:00,
2013-07-04 08:36:00,85.3,64.0,29.67,WNW,291,1.2,1.2,49,0.00,CLR,,0.00,WeatherDisplay:10.37,2013-07-04 15:36:00,
2013-07-04 08:41:00,85.9,63.9,29.67,WNW,283,0.0,0.0,48,0.00,CLR,,0.00,WeatherDisplay:10.37,2013-07-04 15:41:00,
2013-07-04 08:46:00,86.3,63.7,29.67,WNW,283,0.0,0.0,47,0.00,CLR,,0.00,WeatherDisplay:10.37,2013-07-04 15:46:00,
2013-07-04 08:51:00,86.6,64.0,29.67,WNW,283,0.0,0.0,47,0.00,CLR,,0.00,WeatherDisplay:10.37,2013-07-04 15:51:00,
2013-07-04 08:56:00,86.8,63.5,29.67,West,281,0.0,0.0,46,0.00,CLR,,0.00,WeatherDisplay:10.37,2013-07-04 15:56:00,
2013-07-04 09:01:00,86.9,63.0,29.67,West,281,0.0,0.0,45,0.00,CLR,,0.00,WeatherDisplay:10.37,2013-07-04 16:01:00,
2013-07-04 09:06:00,87.2,63.3,29.67,NW,311,0.0,0.0,45,0.00,CLR,,0.00,WeatherDisplay:10.37,2013-07-04 16:06:00,
2013-07-04 09:11:00,87.5,63.5,29.67,NW,311,0.0,0.0,45,0.00,CLR,,0.00,WeatherDisplay:10.37,2013-07-04 16:11:00,
2013-07-04 09:16:00,87.7,62.4,29.67,NW,311,0.0,0.0,43,0.00,CLR,,0.00,WeatherDisplay:10.37,2013-07-04 16:16:00,
2013-07-04 09:21:00,88.0,62.0,29.67,NW,311,0.0,0.0,42,0.00,CLR,,0.00,WeatherDisplay:10.37,2013-07-04 16:21:00,
2013-07-04 09:26:00,88.3,61.6,29.67,West,279,0.0,0.1,41,0.00,CLR,,0.00,WeatherDisplay:10.37,2013-07-04 16:26:00,
2013-07-04 09:31:00,88.6,61.9,29.67,West,279,0.0,0.1,41,0.00,CLR,,0.00,WeatherDisplay:10.37,2013-07-04 16:31:00,
2013-07-04 09:36:00,89.1,63.0,29.67,West,269,0.0,0.0,42,0.00,CLR,,0.00,WeatherDisplay:10.37,2013-07-04 16:36:00,
2013-07-04 09:41:00,89.5,64.7,29.67,West,269,0.0,0.0,44,0.00,CLR,,0.00,WeatherDisplay:10.37,2013-07-04 16:41:00,
2013-07-04 09:46:00,89.9,65.1,29.67,NNW,330,1.0,0.0,44,0.00,CLR,,0.00,WeatherDisplay:10.37,2013-07-04 16:46:00,
2013-07-04 09:51:00,90.3,65.4,29.66,West,269,0.0,0.0,44,0.00,CLR,,0.00,WeatherDisplay:10.37,2013-07-04 16:51:00,
2013-07-04 09:56:00,90.9,66.0,29.66,SSW,198,1.2,1.2,44,0.00,CLR,,0.00,WeatherDisplay:10.37,2013-07-04 16:56:00,
2013-07-04 10:01:00,91.1,66.2,29.66,West,266,1.2,1.2,44,0.00,CLR,,0.00,WeatherDisplay:10.37,2013-07-04 17:01:00,
2013-07-04 10:06:00,91.4,66.4,29.66,SW,235,2.3,2.3,44,0.00,CLR,,0.00,WeatherDisplay:10.37,2013-07-04 17:06:00,
2013-07-04 10:11:00,91.8,66.8,29.66,NW,306,1.2,0.0,44,0.00,CLR,,0.00,WeatherDisplay:10.37,2013-07-04 17:11:00,
2013-07-04 10:16:00,92.0,67.0,29.66,WSW,257,1.0,1.0,44,0.00,CLR,,0.00,WeatherDisplay:10.37,2013-07-04 17:16:00,
2013-07-04 10:21:00,92.2,66.5,29.66,SW,232,2.3,0.0,43,0.00,CLR,,0.00,WeatherDisplay:10.37,2013-07-04 17:21:00,
2013-07-04 10:26:00,92.7,66.2,29.66,WNW,283,1.2,0.0,42,0.00,CLR,,0.00,WeatherDisplay:10.37,2013-07-04 17:26:00,
2013-07-04 10:31:00,93.1,66.6,29.66,West,259,2.3,2.3,42,0.00,CLR,,0.00,WeatherDisplay:10.37,2013-07-04 17:31:00,
2013-07-04 10:36:00,93.4,68.9,29.66,NNW,348,2.0,2.0,45,0.00,CLR,,0.00,WeatherDisplay:10.37,2013-07-04 17:36:00,
2013-07-04 10:41:00,93.6,67.7,29.66,SW,224,2.3,2.3,43,0.00,CLR,,0.00,WeatherDisplay:10.37,2013-07-04 17:41:00,
2013-07-04 10:46:00,94.1,67.5,29.66,North,350,3.5,3.5,42,0.00,CLR,,0.00,WeatherDisplay:10.37,2013-07-04 17:46:00,
2013-07-04 10:51:00,94.4,66.4,29.66,NNW,347,2.3,2.3,40,0.00,CLR,,0.00,WeatherDisplay:10.37,2013-07-04 17:51:00,
2013-07-04 10:56:00,94.5,68.5,29.66,WNW,300,2.3,2.3,43,0.00,CLR,,0.00,WeatherDisplay:10.37,2013-07-04 17:56:00,
2013-07-04 11:01:00,94.9,67.5,29.66,WSW,258,3.5,3.5,41,0.00,CLR,,0.00,WeatherDisplay:10.37,2013-07-04 18:01:00,
2013-07-04 11:06:00,95.0,66.9,29.66,WNW,285,1.0,1.0,40,0.00,CLR,,0.00,WeatherDisplay:10.37,2013-07-04 18:06:00,
2013-07-04 11:11:00,95.4,66.5,29.66,WNW,300,2.3,2.3,39,0.00,CLR,,0.00,WeatherDisplay:10.37,2013-07-04 18:11:00,
2013-07-04 11:16:00,95.5,66.6,29.66,SSE,150,0.0,0.3,39,0.00,CLR,,0.00,WeatherDisplay:10.37,2013-07-04 18:16:00,
2013-07-04 11:21:00,95.7,66.8,29.66,NNW,342,2.0,2.0,39,0.00,CLR,,0.00,WeatherDisplay:10.37,2013-07-04 18:21:00,
2013-07-04 11:26:00,96.0,67.0,29.65,West,274,3.0,3.0,39,0.00,CLR,,0.00,WeatherDisplay:10.37,2013-07-04 18:26:00,
2013-07-04 11:31:00,96.5,67.5,29.65,WNW,283,3.5,3.5,39,0.00,CLR,,0.00,WeatherDisplay:10.37,2013-07-04 18:31:00,
2013-07-04 11:36:00,96.7,68.4,29.65,WSW,249,2.3,2.3,40,0.00,CLR,,0.00,WeatherDisplay:10.37,2013-07-04 18:36:00,
2013-07-04 11:41:00,97.0,68.7,29.65,West,267,2.3,2.3,40,0.00,CLR,,0.00,WeatherDisplay:10.37,2013-07-04 18:41:00,
2013-07-04 11:46:00,97.4,68.3,29.65,NNW,343,3.5,3.5,39,0.00,CLR,,0.00,WeatherDisplay:10.37,2013-07-04 18:46:00,
2013-07-04 11:51:00,98.0,68.1,29.65,SW,231,3.5,3.5,38,0.00,CLR,,0.00,WeatherDisplay:10.37,2013-07-04 18:51:00,
2013-07-04 11:56:00,98.7,67.9,29.65,WSW,240,2.3,2.3,37,0.00,CLR,,0.00,WeatherDisplay:10.37,2013-07-04 18:56:00,
2013-07-04 12:01:00,99.2,68.4,29.65,SE,142,3.5,3.5,37,0.00,CLR,,0.00,WeatherDisplay:10.37,2013-07-04 19:01:00,
2013-07-04 12:06:00,99.5,67.8,29.65,WNW,294,2.3,2.3,36,0.00,CLR,,0.00,WeatherDisplay:10.37,2013-07-04 19:06:00,
2013-07-04 12:11:00,99.9,69.0,29.65,NW,307,2.3,2.3,37,0.00,CLR,,0.00,WeatherDisplay:10.37,2013-07-04 19:11:00,
2013-07-04 12:16:00,100.4,68.6,29.65,WSW,246,3.5,3.5,36,0.00,CLR,,0.00,WeatherDisplay:10.37,2013-07-04 19:16:00,
2013-07-04 12:21:00,101.1,69.2,29.65,North,349,3.5,3.5,36,0.00,CLR,,0.00,WeatherDisplay:10.37,2013-07-04 19:21:00,
2013-07-04 12:26:00,101.0,68.3,29.64,WNW,302,3.5,3.5,35,0.00,CLR,,0.00,WeatherDisplay:10.37,2013-07-04 19:26:00,
2013-07-04 12:31:00,101.3,68.6,29.64,NW,309,3.5,3.5,35,0.00,CLR,,0.00,WeatherDisplay:10.37,2013-07-04 19:31:00,
2013-07-04 12:36:00,101.2,66.8,29.64,NNE,24,3.5,3.5,33,0.00,CLR,,0.00,WeatherDisplay:10.37,2013-07-04 19:36:00,
2013-07-04 12:41:00,100.9,67.4,29.64,NW,323,2.3,2.3,34,0.00,CLR,,0.00,WeatherDisplay:10.37,2013-07-04 19:41:00,
2013-07-04 12:46:00,101.0,68.3,29.64,SW,215,2.3,2.3,35,0.00,CLR,,0.00,WeatherDisplay:10.37,2013-07-04 19:46:00,
2013-07-04 12:51:00,101.7,68.9,29.64,NW,307,1.2,1.2,35,0.00,CLR,,0.00,WeatherDisplay:10.37,2013-07-04 19:51:00,
2013-07-04 12:56:00,101.9,67.4,29.64,WSW,257,3.5,3.5,33,0.00,CLR,,0.00,WeatherDisplay:10.37,2013-07-04 19:56:00,
2013-07-04 13:01:00,101.9,65.6,29.64,WSW,238,4.6,4.6,31,0.00,CLR,,0.00,WeatherDisplay:10.37,2013-07-04 20:01:00,
2013-07-04 13:06:00,102.4,66.0,29.64,North,350,4.0,4.0,31,0.00,CLR,,0.00,WeatherDisplay:10.37,2013-07-04 20:06:00,
2013-07-04 13:11:00,102.5,67.0,29.64,NNW,333,1.2,1.3,32,0.00,CLR,,0.00,WeatherDisplay:10.37,2013-07-04 20:11:00,
2013-07-04 13:16:00,102.5,67.0,29.64,NNW,339,4.0,4.0,32,0.00,CLR,,0.00,WeatherDisplay:10.37,2013-07-04 20:16:00,
2013-07-04 13:21:00,102.4,65.1,29.63,NNW,345,3.5,3.5,30,0.00,CLR,,0.00,WeatherDisplay:10.37,2013-07-04 20:21:00,
2013-07-04 13:26:00,102.5,67.0,29.63,NE,35,4.6,4.6,32,0.00,CLR,,0.00,WeatherDisplay:10.37,2013-07-04 20:26:00,
2013-07-04 13:31:00,102.6,67.1,29.63,NNE,25,3.5,3.5,32,0.00,CLR,,0.00,WeatherDisplay:10.37,2013-07-04 20:31:00,
2013-07-04 13:36:00,102.8,66.4,29.63,North,353,3.5,3.5,31,0.00,CLR,,0.00,WeatherDisplay:10.37,2013-07-04 20:36:00,
2013-07-04 13:41:00,103.1,68.4,29.62,WNW,288,1.2,1.2,33,0.00,CLR,,0.00,WeatherDisplay:10.37,2013-07-04 20:41:00,
2013-07-04 13:46:00,103.8,66.3,29.62,NE,47,3.5,3.5,30,0.00,CLR,,0.00,WeatherDisplay:10.37,2013-07-04 20:46:00,
2013-07-04 13:51:00,104.2,66.6,29.62,WNW,288,3.5,3.5,30,0.00,CLR,,0.00,WeatherDisplay:10.37,2013-07-04 20:51:00,
2013-07-04 13:56:00,104.3,66.7,29.62,West,267,3.5,3.5,30,0.00,CLR,,0.00,WeatherDisplay:10.37,2013-07-04 20:56:00,
2013-07-04 14:01:00,104.2,65.6,29.62,NNW,333,5.0,5.0,29,0.00,CLR,,0.00,WeatherDisplay:10.37,2013-07-04 21:01:00,
2013-07-04 14:06:00,104.1,65.5,29.61,WNW,287,4.6,4.6,29,0.00,CLR,,0.00,WeatherDisplay:10.37,2013-07-04 21:06:00,
2013-07-04 14:11:00,104.1,65.5,29.61,NNE,27,3.5,3.5,29,0.00,CLR,,0.00,WeatherDisplay:10.37,2013-07-04 21:11:00,
2013-07-04 14:16:00,104.5,65.9,29.61,NW,304,3.5,3.5,29,0.00,CLR,,0.00,WeatherDisplay:10.37,2013-07-04 21:16:00,
2013-07-04 14:21:00,104.5,65.9,29.61,NNW,341,3.5,3.5,29,0.00,CLR,,0.00,WeatherDisplay:10.37,2013-07-04 21:21:00,
2013-07-04 14:26:00,104.6,65.0,29.61,WNW,300,4.6,4.6,28,0.00,CLR,,0.00,WeatherDisplay:10.37,2013-07-04 21:26:00,
2013-07-04 14:31:00,104.8,67.1,29.61,West,271,3.5,3.5,30,0.00,CLR,,0.00,WeatherDisplay:10.37,2013-07-04 21:31:00,
2013-07-04 14:36:00,104.7,67.0,29.61,SW,235,3.5,3.5,30,0.00,CLR,,0.00,WeatherDisplay:10.37,2013-07-04 21:36:00,
2013-07-04 14:41:00,105.2,66.5,29.60,WNW,291,2.0,2.0,29,0.00,CLR,,0.00,WeatherDisplay:10.37,2013-07-04 21:41:00,
2013-07-04 14:46:00,105.3,65.6,29.60,NW,324,5.8,5.8,28,0.00,CLR,,0.00,WeatherDisplay:10.37,2013-07-04 21:46:00,
2013-07-04 14:51:00,105.1,67.4,29.60,NNE,24,3.5,3.5,30,0.00,CLR,,0.00,WeatherDisplay:10.37,2013-07-04 21:51:00,
2013-07-04 14:56:00,104.5,65.9,29.60,NNE,16,3.5,3.5,29,0.00,CLR,,0.00,WeatherDisplay:10.37,2013-07-04 21:56:00,
2013-07-04 15:01:00,104.3,65.7,29.59,NNW,330,5.8,5.8,29,0.00,CLR,,0.00,WeatherDisplay:10.37,2013-07-04 22:01:00,
2013-07-04 15:06:00,105.2,67.5,29.59,WSW,255,3.5,3.5,30,0.00,CLR,,0.00,WeatherDisplay:10.37,2013-07-04 22:06:00,
2013-07-04 15:11:00,105.5,65.7,29.59,West,269,2.3,2.3,28,0.00,CLR,,0.00,WeatherDisplay:10.37,2013-07-04 22:11:00,
2013-07-04 15:16:00,105.9,67.1,29.59,NW,322,3.5,3.5,29,0.00,CLR,,0.00,WeatherDisplay:10.37,2013-07-04 22:16:00,
2013-07-04 15:21:00,105.6,66.8,29.59,SSW,193,3.5,3.5,29,0.00,CLR,,0.00,WeatherDisplay:10.37,2013-07-04 22:21:00,
2013-07-04 15:26:00,105.5,65.7,29.59,SSW,198,4.6,4.6,28,0.00,CLR,,0.00,WeatherDisplay:10.37,2013-07-04 22:26:00,
2013-07-04 15:31:00,105.7,65.9,29.59,NNE,13,2.3,2.3,28,0.00,CLR,,0.00,WeatherDisplay:10.37,2013-07-04 22:31:00,
2013-07-04 15:36:00,105.7,65.9,29.58,NNW,345,3.5,3.5,28,0.00,CLR,,0.00,WeatherDisplay:10.37,2013-07-04 22:36:00,
2013-07-04 15:41:00,105.7,64.9,29.58,SSW,194,3.0,3.0,27,0.00,CLR,,0.00,WeatherDisplay:10.37,2013-07-04 22:41:00,
2013-07-04 15:46:00,106.2,66.3,29.58,WNW,297,2.3,2.3,28,0.00,CLR,,0.00,WeatherDisplay:10.37,2013-07-04 22:46:00,
2013-07-04 15:51:00,106.0,65.1,29.58,North,356,3.5,3.5,27,0.00,CLR,,0.00,WeatherDisplay:10.37,2013-07-04 22:51:00,
2013-07-04 15:56:00,105.9,66.1,29.58,West,273,3.5,3.5,28,0.00,CLR,,0.00,WeatherDisplay:10.37,2013-07-04 22:56:00,
2013-07-04 16:01:00,106.0,66.2,29.58,NNW,348,3.5,3.5,28,0.00,CLR,,0.00,WeatherDisplay:10.37,2013-07-04 23:01:00,
2013-07-04 16:06:00,106.0,66.2,29.58,West,277,3.5,3.5,28,0.00,CLR,,0.00,WeatherDisplay:10.37,2013-07-04 23:06:00,
2013-07-04 16:11:00,106.3,65.4,29.57,ENE,58,3.5,3.5,27,0.00,CLR,,0.00,WeatherDisplay:10.37,2013-07-04 23:11:00,
2013-07-04 16:16:00,106.4,65.4,29.57,WNW,300,3.0,3.0,27,0.00,CLR,,0.00,WeatherDisplay:10.37,2013-07-04 23:16:00,
2013-07-04 16:21:00,106.3,66.4,29.57,SW,225,3.5,3.5,28,0.00,CLR,,0.00,WeatherDisplay:10.37,2013-07-04 23:21:00,
2013-07-04 16:26:00,106.4,66.5,29.57,NW,304,3.5,3.5,28,0.00,CLR,,0.00,WeatherDisplay:10.37,2013-07-04 23:26:00,
2013-07-04 16:31:00,106.5,65.5,29.57,NNW,338,3.5,3.5,27,0.00,CLR,,0.00,WeatherDisplay:10.37,2013-07-04 23:31:00,
2013-07-04 16:36:00,106.0,65.1,29.57,North,360,4.0,4.0,27,0.00,CLR,,0.00,WeatherDisplay:10.37,2013-07-04 23:36:00,
2013-07-04 16:41:00,106.2,65.3,29.56,North,360,3.5,3.5,27,0.00,CLR,,0.00,WeatherDisplay:10.37,2013-07-04 23:41:00,
2013-07-04 16:46:00,105.9,65.0,29.56,NNW,345,4.6,4.6,27,0.00,CLR,,0.00,WeatherDisplay:10.37,2013-07-04 23:46:00,
2013-07-04 16:51:00,106.3,62.0,29.56,North,3,5.8,5.8,24,0.00,CLR,,0.00,WeatherDisplay:10.37,2013-07-04 23:51:00,
2013-07-04 16:56:00,106.6,64.5,29.56,NW,307,3.5,3.5,26,0.00,CLR,,0.00,WeatherDisplay:10.37,2013-07-04 23:56:00,
2013-07-04 17:01:00,107.0,64.9,29.56,SW,233,2.3,2.3,26,0.00,CLR,,0.00,WeatherDisplay:10.37,2013-07-05 00:01:00,
2013-07-04 17:06:00,107.4,65.2,29.56,South,177,1.2,1.2,26,0.00,CLR,,0.00,WeatherDisplay:10.37,2013-07-05 00:06:00,
2013-07-04 17:11:00,107.1,63.8,29.56,West,271,2.3,2.3,25,0.00,CLR,,0.00,WeatherDisplay:10.37,2013-07-05 00:11:00,
2013-07-04 17:16:00,107.0,64.9,29.56,SW,215,1.2,1.2,26,0.00,CLR,,0.00,WeatherDisplay:10.37,2013-07-05 00:16:00,
2013-07-04 17:21:00,107.0,63.7,29.56,NNE,30,2.3,2.3,25,0.00,CLR,,0.00,WeatherDisplay:10.37,2013-07-05 00:21:00,
2013-07-04 17:26:00,106.9,64.8,29.55,SSE,154,3.5,3.5,26,0.00,CLR,,0.00,WeatherDisplay:10.37,2013-07-05 00:26:00,
2013-07-04 17:31:00,107.1,65.0,29.55,NNW,333,2.3,0.0,26,0.00,CLR,,0.00,WeatherDisplay:10.37,2013-07-05 00:31:00,
2013-07-04 17:36:00,107.6,63.1,29.55,WSW,252,2.3,2.3,24,0.00,CLR,,0.00,WeatherDisplay:10.37,2013-07-05 00:36:00,
2013-07-04 17:41:00,108.2,62.4,29.55,NW,305,2.3,2.3,23,0.00,CLR,,0.00,WeatherDisplay:10.37,2013-07-05 00:41:00,
2013-07-04 17:46:00,107.6,61.9,29.55,NNE,15,2.3,2.3,23,0.00,CLR,,0.00,WeatherDisplay:10.37,2013-07-05 00:46:00,
2013-07-04 17:51:00,106.7,61.1,29.55,NNW,345,3.5,3.5,23,0.00,CLR,,0.00,WeatherDisplay:10.37,2013-07-05 00:51:00,
2013-07-04 17:56:00,106.5,61.0,29.55,WNW,285,2.3,2.3,23,0.00,CLR,,0.00,WeatherDisplay:10.37,2013-07-05 00:56:00,
2013-07-04 18:01:00,107.1,61.5,29.55,NNW,328,1.2,1.2,23,0.00,CLR,,0.00,WeatherDisplay:10.37,2013-07-05 01:01:00,
2013-07-04 18:06:00,107.4,61.7,29.55,NNW,347,2.3,2.3,23,0.00,CLR,,0.00,WeatherDisplay:10.37,2013-07-05 01:06:00,
2013-07-04 18:11:00,107.0,61.4,29.55,North,359,2.3,2.3,23,0.00,CLR,,0.00,WeatherDisplay:10.37,2013-07-05 01:11:00,
2013-07-04 18:16:00,106.6,62.2,29.55,WSW,246,1.2,1.2,24,0.00,CLR,,0.00,WeatherDisplay:10.37,2013-07-05 01:16:00,
2013-07-04 18:21:00,107.0,62.6,29.55,North,354,3.5,3.5,24,0.00,CLR,,0.00,WeatherDisplay:10.37,2013-07-05 01:21:00,
2013-07-04 18:26:00,106.9,62.5,29.55,WNW,299,3.5,3.5,24,0.00,CLR,,0.00,WeatherDisplay:10.37,2013-07-05 01:26:00,
2013-07-04 18:31:00,107.0,62.6,29.55,NNW,345,3.5,3.5,24,0.00,CLR,,0.00,WeatherDisplay:10.37,2013-07-05 01:31:00,
2013-07-04 18:36:00,107.0,62.6,29.55,NNW,333,2.3,2.3,24,0.00,CLR,,0.00,WeatherDisplay:10.37,2013-07-05 01:36:00,
2013-07-04 18:41:00,106.7,62.3,29.55,NW,319,3.5,3.5,24,0.00,CLR,,0.00,WeatherDisplay:10.37,2013-07-05 01:41:00,
2013-07-04 18:46:00,106.3,63.2,29.55,NW,321,3.5,3.5,25,0.00,CLR,,0.00,WeatherDisplay:10.37,2013-07-05 01:46:00,
2013-07-04 18:51:00,106.2,63.1,29.54,North,350,2.3,2.3,25,0.00,CLR,,0.00,WeatherDisplay:10.37,2013-07-05 01:51:00,
2013-07-04 18:56:00,106.0,64.0,29.54,NNW,339,1.2,1.2,26,0.00,CLR,,0.00,WeatherDisplay:10.37,2013-07-05 01:56:00,
2013-07-04 19:01:00,106.4,64.4,29.54,NW,320,1.2,0.0,26,0.00,CLR,,0.00,WeatherDisplay:10.37,2013-07-05 02:01:00,
2013-07-04 19:06:00,106.1,65.2,29.54,NNW,346,2.3,2.3,27,0.00,CLR,,0.00,WeatherDisplay:10.37,2013-07-05 02:06:00,
2013-07-04 19:11:00,105.4,65.6,29.54,NW,305,1.2,0.0,28,0.00,CLR,,0.00,WeatherDisplay:10.37,2013-07-05 02:11:00,
2013-07-04 19:16:00,104.7,67.0,29.55,NW,325,0.0,1.1,30,0.00,CLR,,0.00,WeatherDisplay:10.37,2013-07-05 02:16:00,
2013-07-04 19:21:00,103.1,68.4,29.55,WNW,283,3.5,0.0,33,0.00,CLR,,0.00,WeatherDisplay:10.37,2013-07-05 02:21:00,
2013-07-04 19:26:00,101.8,67.3,29.55,SW,235,3.5,3.5,33,0.00,CLR,,0.00,WeatherDisplay:10.37,2013-07-05 02:26:00,
2013-07-04 19:32:00,100.9,66.5,29.55,NE,39,1.2,1.2,33,0.00,CLR,,0.00,WeatherDisplay:10.37,2013-07-05 02:32:00,
2013-07-04 19:37:00,100.2,65.0,29.55,NNW,330,2.3,2.3,32,0.00,CLR,,0.00,WeatherDisplay:10.37,2013-07-05 02:37:00,
2013-07-04 19:42:00,99.7,65.5,29.55,SW,225,0.0,0.0,33,0.00,CLR,,0.00,WeatherDisplay:10.37,2013-07-05 02:42:00,
2013-07-04 19:47:00,99.2,65.0,29.55,NNW,342,1.2,1.2,33,0.00,CLR,,0.00,WeatherDisplay:10.37,2013-07-05 02:47:00,
2013-07-04 19:52:00,98.8,65.6,29.55,NNE,13,1.2,1.2,34,0.00,CLR,,0.00,WeatherDisplay:10.37,2013-07-05 02:52:00,
2013-07-04 19:57:00,98.3,66.8,29.55,NNW,339,0.0,0.0,36,0.00,CLR,,0.00,WeatherDisplay:10.37,2013-07-05 02:57:00,
2013-07-04 20:02:00,97.9,67.2,29.55,NNW,328,0.0,0.1,37,0.00,CLR,,0.00,WeatherDisplay:10.37,2013-07-05 03:02:00,
2013-07-04 20:07:00,97.5,66.9,29.56,West,270,0.0,0.0,37,0.00,CLR,,0.00,WeatherDisplay:10.37,2013-07-05 03:07:00,
2013-07-04 20:12:00,97.1,67.3,29.56,WNW,285,1.2,0.0,38,0.00,CLR,,0.00,WeatherDisplay:10.37,2013-07-05 03:12:00,
2013-07-04 20:17:00,96.7,68.4,29.56,WNW,290,1.2,1.2,40,0.00,CLR,,0.00,WeatherDisplay:10.37,2013-07-05 03:17:00,
2013-07-04 20:22:00,96.2,68.0,29.56,NW,319,0.0,0.0,40,0.00,CLR,,0.00,WeatherDisplay:10.37,2013-07-05 03:22:00,
2013-07-04 20:27:00,95.8,68.3,29.56,NW,319,0.0,0.0,41,0.00,CLR,,0.00,WeatherDisplay:10.37,2013-07-05 03:27:00,
2013-07-04 20:32:00,95.4,68.7,29.56,NW,316,0.0,0.0,42,0.00,CLR,,0.00,WeatherDisplay:10.37,2013-07-05 03:32:00,
2013-07-04 20:37:00,95.0,69.0,29.56,West,271,0.0,0.0,43,0.00,CLR,,0.00,WeatherDisplay:10.37,2013-07-05 03:37:00,
2013-07-04 20:42:00,94.6,68.6,29.56,West,271,0.0,0.0,43,0.00,CLR,,0.00,WeatherDisplay:10.37,2013-07-05 03:42:00,
2013-07-04 20:47:00,94.3,69.0,29.56,West,272,0.0,0.0,44,0.00,CLR,,0.00,WeatherDisplay:10.37,2013-07-05 03:47:00,
2013-07-04 20:52:00,94.1,68.9,29.56,West,271,0.0,0.0,44,0.00,CLR,,0.00,WeatherDisplay:10.37,2013-07-05 03:52:00,
2013-07-04 20:57:00,93.8,69.2,29.57,West,271,0.0,0.0,45,0.00,CLR,,0.00,WeatherDisplay:10.37,2013-07-05 03:57:00,
2013-07-04 21:01:00,93.4,68.9,29.57,West,271,0.0,0.0,45,0.00,CLR,,0.00,WeatherDisplay:10.37,2013-07-05 04:01:00,
2013-07-04 21:02:00,93.3,68.8,29.57,West,271,0.0,0.0,45,0.00,CLR,,0.00,WeatherDisplay:10.37,2013-07-05 04:02:00,
2013-07-04 21:07:00,93.0,68.5,29.57,NNW,330,0.0,0.0,45,0.00,CLR,,0.00,WeatherDisplay:10.37,2013-07-05 04:07:00,
2013-07-04 21:12:00,92.7,68.2,29.57,NNW,330,0.0,0.0,45,0.00,CLR,,0.00,WeatherDisplay:10.37,2013-07-05 04:12:00,
2013-07-04 21:17:00,92.5,68.7,29.57,NNW,330,0.0,0.0,46,0.00,CLR,,0.00,WeatherDisplay:10.37,2013-07-05 04:17:00,
2013-07-04 21:22:00,92.3,68.5,29.58,NNW,330,0.0,0.0,46,0.00,CLR,,0.00,WeatherDisplay:10.37,2013-07-05 04:22:00,
2013-07-04 21:27:00,92.1,68.3,29.58,NNW,330,0.0,0.0,46,0.00,CLR,,0.00,WeatherDisplay:10.37,2013-07-05 04:27:00,
2013-07-04 21:32:00,92.0,68.3,29.58,NNW,330,0.0,0.0,46,0.00,CLR,,0.00,WeatherDisplay:10.37,2013-07-05 04:32:00,
2013-07-04 21:37:00,91.9,68.2,29.58,NNW,330,0.0,0.0,46,0.00,CLR,,0.00,WeatherDisplay:10.37,2013-07-05 04:37:00,
2013-07-04 21:42:00,91.7,69.8,29.58,NNW,330,0.0,0.0,49,0.00,CLR,,0.00,WeatherDisplay:10.37,2013-07-05 04:42:00,
2013-07-04 21:47:00,91.3,68.9,29.58,NNW,330,0.0,0.0,48,0.00,CLR,,0.00,WeatherDisplay:10.37,2013-07-05 04:47:00,
2013-07-04 21:52:00,90.8,69.6,29.58,NNW,330,0.0,0.0,50,0.00,CLR,,0.00,WeatherDisplay:10.37,2013-07-05 04:52:00,
2013-07-04 21:57:00,90.3,70.3,29.59,NNW,330,0.0,0.0,52,0.00,CLR,,0.00,WeatherDisplay:10.37,2013-07-05 04:57:00,
2013-07-04 22:02:00,90.0,69.4,29.59,NNW,330,0.0,0.0,51,0.00,CLR,,0.00,WeatherDisplay:10.37,2013-07-05 05:02:00,
2013-07-04 22:07:00,89.8,70.4,29.59,NNW,330,0.0,0.0,53,0.00,CLR,,0.00,WeatherDisplay:10.37,2013-07-05 05:07:00,
2013-07-04 22:12:00,89.5,70.1,29.59,NNW,330,0.0,0.0,53,0.00,CLR,,0.00,WeatherDisplay:10.37,2013-07-05 05:12:00,
2013-07-04 22:17:00,89.1,70.3,29.59,NNW,330,0.0,0.0,54,0.00,CLR,,0.00,WeatherDisplay:10.37,2013-07-05 05:17:00,
2013-07-04 22:22:00,88.7,69.4,29.59,NNW,330,0.0,0.0,53,0.00,CLR,,0.00,WeatherDisplay:10.37,2013-07-05 05:22:00,
2013-07-04 22:27:00,88.7,71.0,29.59,NNW,330,0.0,0.0,56,0.00,CLR,,0.00,WeatherDisplay:10.37,2013-07-05 05:27:00,
2013-07-04 22:32:00,88.4,69.1,29.59,NNW,330,0.0,0.0,53,0.00,CLR,,0.00,WeatherDisplay:10.37,2013-07-05 05:32:00,
2013-07-04 22:37:00,88.2,69.5,29.59,NNW,330,0.0,0.0,54,0.00,CLR,,0.00,WeatherDisplay:10.37,2013-07-05 05:37:00,
2013-07-04 22:42:00,88.1,69.4,29.60,NNW,330,0.0,0.0,54,0.00,CLR,,0.00,WeatherDisplay:10.37,2013-07-05 05:42:00,
2013-07-04 22:47:00,87.8,69.6,29.60,NNW,330,0.0,0.0,55,0.00,CLR,,0.00,WeatherDisplay:10.37,2013-07-05 05:47:00,
2013-07-04 22:52:00,87.6,69.4,29.59,NNW,330,0.0,0.0,55,0.00,CLR,,0.00,WeatherDisplay:10.37,2013-07-05 05:52:00,
2013-07-04 22:57:00,87.3,69.2,29.59,NNW,330,0.0,0.0,55,0.00,CLR,,0.00,WeatherDisplay:10.37,2013-07-05 05:57:00,
2013-07-04 23:02:00,87.0,68.9,29.60,NNW,330,0.0,0.0,55,0.00,CLR,,0.00,WeatherDisplay:10.37,2013-07-05 06:02:00,
2013-07-04 23:07:00,86.8,69.2,29.60,NNW,330,0.0,0.0,56,0.00,CLR,,0.00,WeatherDisplay:10.37,2013-07-05 06:07:00,
2013-07-04 23:12:00,86.7,70.2,29.60,NNW,330,0.0,0.0,58,0.00,CLR,,0.00,WeatherDisplay:10.37,2013-07-05 06:12:00,
2013-07-04 23:17:00,86.7,72.1,29.59,NNW,330,0.0,0.0,62,0.00,CLR,,0.00,WeatherDisplay:10.37,2013-07-05 06:17:00,
2013-07-04 23:22:00,86.4,70.4,29.59,NNW,330,0.0,0.0,59,0.00,CLR,,0.00,WeatherDisplay:10.37,2013-07-05 06:22:00,
2013-07-04 23:27:00,86.2,70.2,29.59,NNW,330,0.0,0.0,59,0.00,CLR,,0.00,WeatherDisplay:10.37,2013-07-05 06:27:00,
2013-07-04 23:32:00,86.0,70.5,29.59,NNW,330,0.0,0.0,60,0.00,CLR,,0.00,WeatherDisplay:10.37,2013-07-05 06:32:00,
2013-07-04 23:37:00,85.9,70.4,29.59,NNW,330,0.0,0.0,60,0.00,CLR,,0.00,WeatherDisplay:10.37,2013-07-05 06:37:00,
2013-07-04 23:42:00,85.6,70.1,29.59,NNW,330,0.0,0.0,60,0.00,CLR,,0.00,WeatherDisplay:10.37,2013-07-05 06:42:00,
2013-07-04 23:47:00,85.5,70.0,29.59,NNW,330,0.0,0.0,60,0.00,CLR,,0.00,WeatherDisplay:10.37,2013-07-05 06:47:00,
2013-07-04 23:52:00,85.8,70.3,29.60,SSW,207,1.2,0.0,60,0.00,CLR,,0.00,WeatherDisplay:10.37,2013-07-05 06:52:00,
2013-07-04 23:57:00,86.3,70.3,29.60,SSW,207,0.0,0.0,59,0.00,CLR,,0.00,WeatherDisplay:10.37,2013-07-05 06:57:00,